DLH1PM EDDF-EDDS

Flight info

Callsign DLH1PM
Flight time 0h 29m
Altitude 21000
Route ANEKI2L/18 ANEKI Y163 NEKLO Y171 INKAM N850 KRH T128 BADSO BADSO2A
Aircraft A319/M-SDE2E3FGIJ1LORWXYZ/HB1

Departure

Time 2026-05-05 18:50
Airport Frankfurt Main Airport (EDDF)

Arrival

Time 2026-05-05 19:20
Airport Stuttgart Airport (EDDS)
Time Latitude Longitude Altitude Speed Heading
2026-05-05 18:21 50.04401 8.56223 362 ft 0 kts 160°
2026-05-05 18:21 50.04402 8.56222 362 ft 0 kts 159°
2026-05-05 18:32 50.04411 8.56217 362 ft 4 kts 155°
2026-05-05 18:33 50.04433 8.56202 360 ft 2 kts 162°
2026-05-05 18:33 50.04457 8.56196 356 ft 4 kts 198°
2026-05-05 18:33 50.04476 8.56219 365 ft 4 kts 243°
2026-05-05 18:33 50.04486 8.56255 361 ft 3 kts 250°
2026-05-05 18:34 50.04495 8.56294 358 ft 4 kts 250°
2026-05-05 18:34 50.04505 8.56334 363 ft 4 kts 250°
2026-05-05 18:34 50.04514 8.56371 361 ft 2 kts 249°
2026-05-05 18:34 50.04514 8.56373 363 ft 0 kts 249°
2026-05-05 18:38 50.04513 8.56368 360 ft 2 kts 249°
2026-05-05 18:38 50.04502 8.56321 359 ft 7 kts 249°
2026-05-05 18:38 50.04484 8.56248 362 ft 8 kts 249°
2026-05-05 18:38 50.04465 8.56168 358 ft 8 kts 249°
2026-05-05 18:39 50.04443 8.56079 356 ft 9 kts 248°
2026-05-05 18:39 50.04394 8.56029 356 ft 9 kts 179°
2026-05-05 18:39 50.04330 8.56063 359 ft 10 kts 160°
2026-05-05 18:39 50.04264 8.56040 357 ft 11 kts 234°
2026-05-05 18:40 50.04235 8.55922 356 ft 12 kts 250°
2026-05-05 18:40 50.04203 8.55791 357 ft 14 kts 249°
2026-05-05 18:40 50.04169 8.55645 352 ft 15 kts 250°
2026-05-05 18:40 50.04130 8.55486 353 ft 16 kts 249°
2026-05-05 18:41 50.04092 8.55325 357 ft 16 kts 250°
2026-05-05 18:41 50.04053 8.55164 356 ft 16 kts 250°
2026-05-05 18:41 50.04015 8.55003 356 ft 16 kts 249°
2026-05-05 18:41 50.03973 8.54827 355 ft 18 kts 250°
2026-05-05 18:42 50.03927 8.54632 352 ft 20 kts 249°
2026-05-05 18:42 50.03876 8.54421 354 ft 22 kts 249°
2026-05-05 18:42 50.03804 8.54239 347 ft 16 kts 247°
2026-05-05 18:42 50.03769 8.54094 348 ft 13 kts 249°
2026-05-05 18:43 50.03736 8.53956 350 ft 14 kts 249°
2026-05-05 18:43 50.03700 8.53806 346 ft 15 kts 250°
2026-05-05 18:43 50.03660 8.53643 349 ft 17 kts 249°
2026-05-05 18:43 50.03616 8.53469 338 ft 18 kts 250°
2026-05-05 18:44 50.03572 8.53285 337 ft 19 kts 249°
2026-05-05 18:44 50.03525 8.53088 337 ft 20 kts 249°
2026-05-05 18:44 50.03474 8.52884 335 ft 21 kts 246°
2026-05-05 18:44 50.03454 8.52813 335 ft 1 kts 246°
2026-05-05 18:45 50.03451 8.52800 336 ft 1 kts 246°
2026-05-05 18:45 50.03448 8.52790 334 ft 2 kts 246°
2026-05-05 18:45 50.03442 8.52766 334 ft 3 kts 250°
2026-05-05 18:45 50.03433 8.52728 334 ft 4 kts 249°
2026-05-05 18:46 50.03432 8.52724 334 ft 0 kts 250°
2026-05-05 18:46 50.03431 8.52719 334 ft 1 kts 249°
2026-05-05 18:46 50.03427 8.52704 333 ft 2 kts 249°
2026-05-05 18:46 50.03416 8.52659 334 ft 7 kts 249°
2026-05-05 18:47 50.03382 8.52596 334 ft 8 kts 191°
2026-05-05 18:47 50.03347 8.52594 336 ft 0 kts 180°
2026-05-05 18:47 50.03343 8.52594 336 ft 1 kts 180°
2026-05-05 18:47 50.03341 8.52594 336 ft 0 kts 180°
2026-05-05 18:49 50.03332 8.52594 336 ft 11 kts 180°
2026-05-05 18:50 50.02951 8.52598 336 ft 94 kts 180°
2026-05-05 18:50 50.02066 8.52606 333 ft 157 kts 179°
2026-05-05 18:50 50.00950 8.52615 944 ft 159 kts 181°
2026-05-05 18:50 49.99830 8.52658 1631 ft 167 kts 180°
2026-05-05 18:51 49.98617 8.52735 2060 ft 188 kts 180°
2026-05-05 18:51 49.97230 8.52829 2478 ft 211 kts 180°
2026-05-05 18:51 49.95704 8.52940 3062 ft 225 kts 180°
2026-05-05 18:51 49.94122 8.53028 4025 ft 228 kts 181°
2026-05-05 18:52 49.92535 8.53118 5053 ft 229 kts 180°
2026-05-05 18:52 49.90926 8.53234 6095 ft 231 kts 180°
2026-05-05 18:52 49.89311 8.53356 7025 ft 235 kts 180°
2026-05-05 18:52 49.87665 8.53479 7956 ft 239 kts 180°
2026-05-05 18:53 49.86002 8.53602 8898 ft 242 kts 180°
2026-05-05 18:53 49.84310 8.53725 9855 ft 246 kts 180°
2026-05-05 18:53 49.82589 8.53846 10724 ft 249 kts 180°
2026-05-05 18:53 49.80842 8.53967 11600 ft 254 kts 180°
2026-05-05 18:54 49.79020 8.54495 12014 ft 282 kts 163°
2026-05-05 18:54 49.77168 8.55872 12354 ft 309 kts 152°
2026-05-05 18:54 49.75294 8.57741 12787 ft 329 kts 148°
2026-05-05 18:54 49.73390 8.59796 13541 ft 337 kts 147°
2026-05-05 18:55 49.71472 8.61833 14284 ft 341 kts 148°
2026-05-05 18:55 49.69478 8.63849 15067 ft 344 kts 150°
2026-05-05 18:55 49.67438 8.65814 15843 ft 346 kts 151°
2026-05-05 18:55 49.65371 8.67727 16616 ft 349 kts 152°
2026-05-05 18:56 49.63258 8.69637 17381 ft 353 kts 152°
2026-05-05 18:56 49.61124 8.71549 18123 ft 357 kts 152°
2026-05-05 18:56 49.58967 8.73480 18780 ft 360 kts 152°
2026-05-05 18:56 49.56792 8.75438 19456 ft 363 kts 151°
2026-05-05 18:57 49.54601 8.77418 20136 ft 366 kts 151°
2026-05-05 18:57 49.52400 8.79407 20809 ft 368 kts 151°
2026-05-05 18:57 49.50914 8.80749 21094 ft 362 kts 151°
2026-05-05 18:57 49.48042 8.83340 20230 ft 364 kts 151°
2026-05-05 18:58 49.45865 8.85306 19670 ft 364 kts 151°
2026-05-05 18:58 49.43685 8.87275 19145 ft 363 kts 151°
2026-05-05 18:58 49.41520 8.89231 18651 ft 361 kts 152°
2026-05-05 18:58 49.39360 8.91176 18165 ft 359 kts 151°
2026-05-05 18:59 49.37207 8.93109 17615 ft 357 kts 151°
2026-05-05 18:59 49.35069 8.95029 17138 ft 353 kts 152°
2026-05-05 18:59 49.32971 8.96911 16882 ft 340 kts 152°
2026-05-05 18:59 49.31000 8.98680 16695 ft 321 kts 152°
2026-05-05 19:00 49.29112 9.00373 16214 ft 313 kts 152°
2026-05-05 19:00 49.27260 9.02031 15637 ft 309 kts 153°
2026-05-05 19:00 49.25386 9.03708 15069 ft 307 kts 153°
2026-05-05 19:00 49.23538 9.05355 14713 ft 307 kts 153°
2026-05-05 19:01 49.21718 9.06974 14392 ft 305 kts 153°
2026-05-05 19:01 49.19886 9.08601 14050 ft 304 kts 153°
2026-05-05 19:01 49.18059 9.10226 13710 ft 303 kts 153°
2026-05-05 19:01 49.16244 9.11844 13338 ft 302 kts 154°
2026-05-05 19:02 49.14435 9.13458 12965 ft 301 kts 154°
2026-05-05 19:02 49.12635 9.15060 12597 ft 299 kts 154°
2026-05-05 19:02 49.10840 9.16650 12232 ft 297 kts 154°
2026-05-05 19:02 49.09046 9.18234 11864 ft 296 kts 154°
2026-05-05 19:03 49.07268 9.19808 11506 ft 295 kts 154°
2026-05-05 19:03 49.05495 9.21378 11137 ft 293 kts 154°
2026-05-05 19:03 49.03737 9.22944 10749 ft 292 kts 154°
2026-05-05 19:03 49.01990 9.24506 10414 ft 290 kts 154°
2026-05-05 19:04 49.00251 9.26061 10043 ft 289 kts 154°
2026-05-05 19:04 48.98446 9.27290 9686 ft 281 kts 169°
2026-05-05 19:04 48.96565 9.27721 9308 ft 272 kts 184°
2026-05-05 19:04 48.94710 9.27387 8916 ft 266 kts 198°
2026-05-05 19:05 48.93044 9.26282 8828 ft 259 kts 219°
2026-05-05 19:05 48.91948 9.24276 8835 ft 239 kts 241°
2026-05-05 19:05 48.91205 9.22087 8840 ft 230 kts 244°
2026-05-05 19:05 48.90559 9.19878 8837 ft 229 kts 254°
2026-05-05 19:06 48.90602 9.17473 8838 ft 234 kts 285°
2026-05-05 19:06 48.91486 9.15453 8839 ft 245 kts 314°
2026-05-05 19:06 48.93019 9.14317 8838 ft 258 kts 345°
2026-05-05 19:06 48.94827 9.14478 8853 ft 268 kts 15°
2026-05-05 19:07 48.96415 9.15981 8839 ft 273 kts 46°
2026-05-05 19:07 48.97357 9.18464 8841 ft 273 kts 76°
2026-05-05 19:07 48.97443 9.21305 8843 ft 269 kts 101°
2026-05-05 19:07 48.97122 9.24115 8847 ft 269 kts 104°
2026-05-05 19:08 48.96762 9.26907 8830 ft 269 kts 105°
2026-05-05 19:08 48.96423 9.29716 8838 ft 270 kts 104°
2026-05-05 19:08 48.96097 9.32531 8782 ft 269 kts 104°
2026-05-05 19:08 48.95775 9.35319 8434 ft 268 kts 104°
2026-05-05 19:09 48.95558 9.37174 8197 ft 268 kts 104°
2026-05-05 19:09 48.95122 9.40897 7767 ft 266 kts 104°
2026-05-05 19:09 48.95107 9.43667 7426 ft 269 kts 78°
2026-05-05 19:09 48.95946 9.46183 7098 ft 267 kts 48°
2026-05-05 19:10 48.97179 9.48282 6758 ft 267 kts 55°
2026-05-05 19:10 48.97817 9.50890 6475 ft 262 kts 87°
2026-05-05 19:10 48.97550 9.53569 6132 ft 254 kts 119°
2026-05-05 19:10 48.96474 9.55560 6000 ft 242 kts 149°
2026-05-05 19:11 48.95066 9.56978 6005 ft 242 kts 153°
2026-05-05 19:11 48.93617 9.58208 5999 ft 238 kts 166°
2026-05-05 19:11 48.92015 9.58574 6019 ft 232 kts 182°
2026-05-05 19:11 48.90406 9.58643 6001 ft 231 kts 184°
2026-05-05 19:12 48.88809 9.58686 5930 ft 229 kts 184°
2026-05-05 19:12 48.87210 9.58728 5524 ft 229 kts 184°
2026-05-05 19:12 48.85618 9.58777 5196 ft 228 kts 184°
2026-05-05 19:12 48.84035 9.58821 5015 ft 228 kts 184°
2026-05-05 19:13 48.82447 9.58856 5016 ft 228 kts 186°
2026-05-05 19:13 48.80972 9.58280 5011 ft 220 kts 214°
2026-05-05 19:13 48.79766 9.56877 5021 ft 218 kts 223°
2026-05-05 19:13 48.78620 9.55368 5019 ft 218 kts 224°
2026-05-05 19:14 48.77479 9.53838 5016 ft 219 kts 224°
2026-05-05 19:14 48.76341 9.52315 5009 ft 214 kts 224°
2026-05-05 19:14 48.75257 9.50879 4895 ft 199 kts 224°
2026-05-05 19:14 48.74304 9.49472 4759 ft 186 kts 234°
2026-05-05 19:15 48.73786 9.47722 4397 ft 180 kts 255°
2026-05-05 19:15 48.73457 9.45948 4124 ft 169 kts 253°
2026-05-05 19:15 48.73139 9.44258 3905 ft 165 kts 253°
2026-05-05 19:15 48.72931 9.43155 3754 ft 164 kts 253°
2026-05-05 19:16 48.72544 9.41090 3477 ft 141 kts 253°
2026-05-05 19:16 48.72291 9.39740 3295 ft 131 kts 253°
2026-05-05 19:16 48.72047 9.38442 3128 ft 126 kts 253°
2026-05-05 19:16 48.71809 9.37172 2950 ft 125 kts 253°
2026-05-05 19:17 48.71573 9.35912 2784 ft 124 kts 253°
2026-05-05 19:17 48.71414 9.35063 2652 ft 124 kts 253°
2026-05-05 19:17 48.71181 9.33809 2491 ft 124 kts 253°
2026-05-05 19:17 48.70944 9.32558 2333 ft 123 kts 252°
2026-05-05 19:18 48.70713 9.31326 2156 ft 124 kts 253°
2026-05-05 19:18 48.70476 9.30068 1979 ft 125 kts 254°
2026-05-05 19:18 48.70235 9.28788 1839 ft 126 kts 254°
2026-05-05 19:18 48.69991 9.27504 1644 ft 126 kts 253°
2026-05-05 19:19 48.69750 9.26231 1484 ft 126 kts 253°
2026-05-05 19:19 48.69508 9.24956 1335 ft 125 kts 253°
2026-05-05 19:19 48.69273 9.23707 1206 ft 115 kts 254°
2026-05-05 19:19 48.69089 9.22734 1222 ft 72 kts 254°
2026-05-05 19:20 48.68991 9.22222 1247 ft 39 kts 253°
2026-05-05 19:20 48.68942 9.21854 1244 ft 33 kts 269°
2026-05-05 19:20 48.68975 9.21540 1253 ft 28 kts 284°
2026-05-05 19:20 48.69000 9.21351 1260 ft 12 kts 268°
2026-05-05 19:21 48.68983 9.21237 1263 ft 10 kts 251°
2026-05-05 19:21 48.68963 9.21140 1269 ft 10 kts 254°
2026-05-05 19:21 48.68943 9.21033 1272 ft 10 kts 255°
2026-05-05 19:21 48.68924 9.20936 1270 ft 9 kts 253°
2026-05-05 19:22 48.68907 9.20849 1272 ft 9 kts 253°
2026-05-05 19:22 48.68888 9.20753 1275 ft 10 kts 253°
2026-05-05 19:22 48.68868 9.20646 1276 ft 11 kts 255°
2026-05-05 19:22 48.68846 9.20522 1282 ft 13 kts 255°
2026-05-05 19:23 48.68818 9.20376 1283 ft 15 kts 254°
2026-05-05 19:23 48.68786 9.20208 1287 ft 18 kts 253°
2026-05-05 19:23 48.68757 9.20027 1291 ft 17 kts 271°
2026-05-05 19:23 48.68820 9.19911 1298 ft 12 kts 323°
2026-05-05 19:24 48.68887 9.19874 1302 ft 8 kts 343°
2026-05-05 19:24 48.68926 9.19898 1304 ft 6 kts 53°
2026-05-05 19:24 48.68957 9.19912 1305 ft 4 kts 348°
2026-05-05 19:24 48.68968 9.19907 1306 ft 0 kts 344°
2026-05-05 19:25 48.68972 9.19906 1306 ft 1 kts 344°
2026-05-05 19:25 48.68978 9.19903 1306 ft 1 kts 344°
2026-05-05 19:25 48.68989 9.19899 1307 ft 1 kts 344°
2026-05-05 19:25 48.68992 9.19897 1307 ft 2 kts 344°
2026-05-05 19:26 48.68993 9.19897 1307 ft 0 kts 345°
2026-05-05 19:26 48.68995 9.19896 1307 ft 0 kts 344°